TimeWET,TemperatureF,Dew PointF,Humidity,Sea Level PressureIn,VisibilityMPH,Wind Direction,Wind SpeedMPH,Gust SpeedMPH,PrecipitationIn,Events,Conditions,WindDirDegrees,DateUTC
12:00 AM,56,53,86,29.60,4,Calm,Calm,,,,Overcast,,2013-03-04 00:00:00
12:00 AM,57.2,53.6,88,29.59,3.7,Calm,Calm,-,N/A,,Mostly Cloudy,0,2013-03-04 00:00:00
12:30 AM,57.2,53.6,88,29.59,3.1,Calm,Calm,-,N/A,,Mostly Cloudy,0,2013-03-04 00:30:00
1:00 AM,57.2,53.6,88,29.56,3.1,Calm,Calm,-,N/A,,Mostly Cloudy,0,2013-03-04 01:00:00
1:30 AM,57.2,53.6,88,29.50,3.1,Calm,Calm,-,N/A,,Mostly Cloudy,0,2013-03-04 01:30:00
2:00 AM,57.2,53.6,88,29.50,3.1,Calm,Calm,-,N/A,,Mostly Cloudy,0,2013-03-04 02:00:00
2:30 AM,57.2,55.4,94,29.47,3.1,Calm,Calm,-,N/A,,Mostly Cloudy,0,2013-03-04 02:30:00
3:00 AM,57,55,91,29.47,3,SE,3.5,,,Rain,Light Rain,140,2013-03-04 03:00:00
3:00 AM,57.2,55.4,94,29.44,3.1,SE,3.5,-,N/A,,Mostly Cloudy,140,2013-03-04 03:00:00
3:30 AM,57.2,55.4,94,29.42,3.1,ESE,3.5,-,N/A,,Mostly Cloudy,110,2013-03-04 03:30:00
4:00 AM,57.2,55.4,94,29.39,3.1,SE,3.5,-,N/A,,Mostly Cloudy,130,2013-03-04 04:00:00
4:30 AM,57.2,55.4,94,29.39,3.1,ESE,4.6,-,N/A,,Mostly Cloudy,120,2013-03-04 04:30:00
5:00 AM,57.2,53.6,88,29.36,3.1,ESE,5.8,-,N/A,,Mostly Cloudy,110,2013-03-04 05:00:00
5:30 AM,57.2,53.6,88,29.36,3.1,Variable,2.3,-,N/A,,Mostly Cloudy,0,2013-03-04 05:30:00
6:00 AM,57,54,88,29.36,3,SE,1.2,,,Rain,Light Rain,130,2013-03-04 06:00:00
6:00 AM,57.2,53.6,88,29.36,3.1,Variable,1.2,-,N/A,,Mostly Cloudy,0,2013-03-04 06:00:00
6:30 AM,57.2,53.6,88,29.36,3.1,Variable,2.3,-,N/A,Rain,Rain,0,2013-03-04 06:30:00
7:00 AM,57.2,53.6,88,29.39,3.1,South,3.5,-,N/A,Rain,Rain,170,2013-03-04 07:00:00
7:30 AM,57.2,53.6,88,29.36,3.1,SE,4.6,-,N/A,Rain,Rain,130,2013-03-04 07:30:00
8:00 AM,57.2,53.6,88,29.33,3.1,SE,11.5,-,N/A,Rain,Light Rain,140,2013-03-04 08:00:00
8:30 AM,57.2,53.6,88,29.33,3.1,SE,9.2,-,N/A,Rain,Light Rain,140,2013-03-04 08:30:00
9:00 AM,58,55,86,29.36,3,South,3.5,,,Rain,Light Rain,170,2013-03-04 09:00:00
9:00 AM,57.2,55.4,94,29.36,3.1,South,3.5,-,N/A,,Mostly Cloudy,170,2013-03-04 09:00:00
9:30 AM,59.0,55.4,88,29.36,3.1,SSW,6.9,-,N/A,,Mostly Cloudy,200,2013-03-04 09:30:00
10:00 AM,60.8,55.4,82,29.36,3.1,South,5.8,-,N/A,,Mostly Cloudy,170,2013-03-04 10:00:00
11:00 AM,64.4,55.4,73,29.36,5.0,South,11.5,-,N/A,,Mostly Cloudy,170,2013-03-04 11:00:00
11:30 AM,66.2,53.6,64,29.36,5.0,SSW,15.0,-,N/A,,Mostly Cloudy,200,2013-03-04 11:30:00
12:00 PM,68,53,48,29.34,5,SSW,21.9,,,,Partly Cloudy,210,2013-03-04 12:00:00
12:00 PM,68.0,51.8,56,29.33,5.0,SSW,21.9,34.5,N/A,,Mostly Cloudy,210,2013-03-04 12:00:00
12:02 PM,68.0,51.8,56,29.33,5.0,SSW,21.9,34.5,N/A,,Mostly Cloudy,210,2013-03-04 12:02:00
12:30 PM,69.8,53.6,56,29.33,5.0,SSW,20.7,-,N/A,,Mostly Cloudy,210,2013-03-04 12:30:00
1:00 PM,68.0,50.0,52,29.33,5.0,SW,29.9,42.6,N/A,,Mostly Cloudy,220,2013-03-04 13:00:00
1:30 PM,66.2,50.0,56,29.33,5.0,SSW,21.9,-,N/A,,Mostly Cloudy,210,2013-03-04 13:30:00
2:00 PM,66.2,50.0,56,29.33,5.0,SW,26.5,-,N/A,,Mostly Cloudy,220,2013-03-04 14:00:00
2:30 PM,68.0,50.0,52,29.33,5.0,SW,25.3,-,N/A,,Scattered Clouds,220,2013-03-04 14:30:00
3:00 PM,68,50,43,29.33,5,SW,25.3,,,,Partly Cloudy,220,2013-03-04 15:00:00
3:00 PM,68.0,50.0,52,29.33,5.0,SW,25.3,-,N/A,,Scattered Clouds,220,2013-03-04 15:00:00
3:30 PM,66.2,50.0,56,29.33,5.0,SW,24.2,36.8,N/A,,Mostly Cloudy,230,2013-03-04 15:30:00
4:00 PM,64.4,50.0,59,29.33,5.0,SSW,16.1,27.6,N/A,,Mostly Cloudy,200,2013-03-04 16:00:00
4:30 PM,66.2,50.0,56,29.33,5.0,SSW,19.6,31.1,N/A,,Mostly Cloudy,210,2013-03-04 16:30:00
5:00 PM,66.2,51.8,60,29.33,5.0,SW,20.7,32.2,N/A,,Mostly Cloudy,220,2013-03-04 17:00:00
5:30 PM,64.4,51.8,64,29.36,5.0,SSW,15.0,-,N/A,,Mostly Cloudy,210,2013-03-04 17:30:00
6:00 PM,64.4,50.0,59,29.36,5.0,SW,16.1,-,N/A,,Mostly Cloudy,220,2013-03-04 18:00:00
6:30 PM,62.6,50.0,63,29.39,5.0,SW,10.4,-,N/A,,Mostly Cloudy,220,2013-03-04 18:30:00
7:00 PM,62.6,50.0,63,29.39,5.0,SSW,9.2,-,N/A,,Mostly Cloudy,210,2013-03-04 19:00:00
7:30 PM,62.6,51.8,68,29.39,5.0,South,8.1,-,N/A,,Mostly Cloudy,190,2013-03-04 19:30:00
8:00 PM,62.6,50.0,63,29.42,5.0,South,10.4,-,N/A,,Mostly Cloudy,190,2013-03-04 20:00:00
8:30 PM,60.8,50.0,68,29.42,5.0,South,11.5,-,N/A,,Partly Cloudy,190,2013-03-04 20:30:00
9:00 PM,60,50,62,29.42,5,South,8.1,,,,Mostly Cloudy,190,2013-03-04 21:00:00
9:00 PM,60.8,50.0,68,29.42,5.0,South,8.1,-,N/A,,Partly Cloudy,190,2013-03-04 21:00:00
9:30 PM,59.0,50.0,72,29.42,5.0,South,6.9,-,N/A,,Partly Cloudy,190,2013-03-04 21:30:00
10:00 PM,59.0,50.0,72,29.42,5.0,South,9.2,-,N/A,,Partly Cloudy,190,2013-03-04 22:00:00
10:30 PM,60.8,50.0,68,29.39,5.0,South,9.2,-,N/A,,Mostly Cloudy,190,2013-03-04 22:30:00
11:00 PM,60.8,50.0,68,29.39,5.0,South,10.4,-,N/A,,Mostly Cloudy,190,2013-03-04 23:00:00
11:30 PM,60.8,50.0,68,29.39,5.0,South,9.2,-,N/A,,Mostly Cloudy,190,2013-03-04 23:30:00